owner,sensor,date,latitude,longitude,relative_humidity,qcFlag 
DISL,ioos:station:DISL:BSCA:1,2019-01-01T06:27:00Z,30.3288,-87.8293,99.4,1111122 
DISL,ioos:station:DISL:BSCA:1,2019-01-01T07:27:00Z,30.3288,-87.8293,99.4,1111122 
DISL,ioos:station:DISL:BSCA:1,2019-01-01T08:27:00Z,30.3288,-87.8293,99.4,1111122 
DISL,ioos:station:DISL:BSCA:1,2019-01-01T09:57:00Z,30.3288,-87.8293,99.4,1111122 
DISL,ioos:station:DISL:BSCA:1,2019-01-01T10:57:00Z,30.3288,-87.8293,99.4,1111122 
DISL,ioos:station:DISL:BSCA:1,2019-01-01T11:57:00Z,30.3288,-87.8293,99.4,1111122 
DISL,ioos:station:DISL:BSCA:1,2019-01-01T12:57:00Z,30.3288,-87.8293,99.5,1111122 
DISL,ioos:station:DISL:BSCA:1,2019-01-01T13:57:00Z,30.3288,-87.8293,99.3,1111122 
DISL,ioos:station:DISL:BSCA:1,2019-01-01T14:57:00Z,30.3288,-87.8293,99.4,1111122 
DISL,ioos:station:DISL:BSCA:1,2019-01-01T15:57:00Z,30.3288,-87.8293,99.5,1111122 
DISL,ioos:station:DISL:BSCA:1,2019-01-01T16:57:00Z,30.3288,-87.8293,99.5,1111122 
DISL,ioos:station:DISL:BSCA:1,2019-01-01T17:57:00Z,30.3288,-87.8293,99.3,1111122 
DISL,ioos:station:DISL:BSCA:1,2019-01-01T18:57:00Z,30.3288,-87.8293,99.4,1111122 
DISL,ioos:station:DISL:BSCA:1,2019-01-01T19:57:00Z,30.3288,-87.8293,99.4,1111122 
DISL,ioos:station:DISL:BSCA:1,2019-01-01T20:57:00Z,30.3288,-87.8293,99.5,1111122 
DISL,ioos:station:DISL:BSCA:1,2019-01-01T21:57:00Z,30.3288,-87.8293,99.5,1111122 
DISL,ioos:station:DISL:BSCA:1,2019-01-01T22:57:00Z,30.3288,-87.8293,99.4,1111122 
DISL,ioos:station:DISL:BSCA:1,2019-01-01T23:57:00Z,30.3288,-87.8293,99.5,1111122 
DISL,ioos:station:DISL:BSCA:1,2019-01-02T00:57:00Z,30.3288,-87.8293,99.5,1111122 
DISL,ioos:station:DISL:BSCA:1,2019-01-02T01:57:00Z,30.3288,-87.8293,99.4,1111122 
DISL,ioos:station:DISL:BSCA:1,2019-01-02T02:57:00Z,30.3288,-87.8293,99.5,1111122 
DISL,ioos:station:DISL:BSCA:1,2019-01-02T03:57:00Z,30.3288,-87.8293,99.5,1111122 
DISL,ioos:station:DISL:BSCA:1,2019-01-02T04:57:00Z,30.3288,-87.8293,99.5,1111122 
DISL,ioos:station:DISL:BSCA:1,2019-01-02T05:57:00Z,30.3288,-87.8293,99.5,1111122 
DISL,ioos:station:DISL:BSCA:1,2019-01-02T06:57:00Z,30.3288,-87.8293,99.5,1111122 
DISL,ioos:station:DISL:BSCA:1,2019-01-02T07:57:00Z,30.3288,-87.8293,99.5,1111122 
DISL,ioos:station:DISL:BSCA:1,2019-01-02T08:57:00Z,30.3288,-87.8293,99.5,1111122 
DISL,ioos:station:DISL:BSCA:1,2019-01-02T09:57:00Z,30.3288,-87.8293,99.5,1111122 
DISL,ioos:station:DISL:BSCA:1,2019-01-02T10:57:00Z,30.3288,-87.8293,99.4,1111122 
DISL,ioos:station:DISL:BSCA:1,2019-01-02T11:57:00Z,30.3288,-87.8293,99.5,1111122 
DISL,ioos:station:DISL:BSCA:1,2019-01-02T12:57:00Z,30.3288,-87.8293,99.4,1111122 
DISL,ioos:station:DISL:BSCA:1,2019-01-02T13:57:00Z,30.3288,-87.8293,99.4,1111122 
DISL,ioos:station:DISL:BSCA:1,2019-01-02T14:57:00Z,30.3288,-87.8293,99.5,1111122 
DISL,ioos:station:DISL:BSCA:1,2019-01-02T15:57:00Z,30.3288,-87.8293,99.4,1111122 
DISL,ioos:station:DISL:BSCA:1,2019-01-02T16:57:00Z,30.3288,-87.8293,99.4,1111122 
DISL,ioos:station:DISL:BSCA:1,2019-01-02T17:57:00Z,30.3288,-87.8293,99.4,1111122 
DISL,ioos:station:DISL:BSCA:1,2019-01-02T18:57:00Z,30.3288,-87.8293,99.4,1111122 
DISL,ioos:station:DISL:BSCA:1,2019-01-02T19:57:00Z,30.3288,-87.8293,99.3,1111122 
DISL,ioos:station:DISL:BSCA:1,2019-01-02T20:57:00Z,30.3288,-87.8293,99.5,1111122 
DISL,ioos:station:DISL:BSCA:1,2019-01-02T21:57:00Z,30.3288,-87.8293,99.4,1111122 
DISL,ioos:station:DISL:BSCA:1,2019-01-02T22:57:00Z,30.3288,-87.8293,99.4,1111122 
DISL,ioos:station:DISL:BSCA:1,2019-01-02T23:57:00Z,30.3288,-87.8293,99.5,1111122 
DISL,ioos:station:DISL:BSCA:1,2019-01-03T00:57:00Z,30.3288,-87.8293,99.4,1111122 
DISL,ioos:station:DISL:BSCA:1,2019-01-03T01:57:00Z,30.3288,-87.8293,99.4,1111122 
DISL,ioos:station:DISL:BSCA:1,2019-01-03T06:57:00Z,30.3288,-87.8293,99.5,1111122 
DISL,ioos:station:DISL:BSCA:1,2019-01-03T07:57:00Z,30.3288,-87.8293,99.4,1111122 
DISL,ioos:station:DISL:BSCA:1,2019-01-03T08:57:00Z,30.3288,-87.8293,99.5,1111122 
DISL,ioos:station:DISL:BSCA:1,2019-01-03T09:57:00Z,30.3288,-87.8293,99.5,1111122 
DISL,ioos:station:DISL:BSCA:1,2019-01-03T10:57:00Z,30.3288,-87.8293,99.5,1111122 
DISL,ioos:station:DISL:BSCA:1,2019-01-03T11:57:00Z,30.3288,-87.8293,99.4,1111122 
DISL,ioos:station:DISL:BSCA:1,2019-01-03T12:57:00Z,30.3288,-87.8293,99.4,1111122 
DISL,ioos:station:DISL:BSCA:1,2019-01-03T13:57:00Z,30.3288,-87.8293,99.4,1111122 
DISL,ioos:station:DISL:BSCA:1,2019-01-03T14:57:00Z,30.3288,-87.8293,99.4,1111122 
DISL,ioos:station:DISL:BSCA:1,2019-01-03T15:57:00Z,30.3288,-87.8293,95.6,1111122 
DISL,ioos:station:DISL:BSCA:1,2019-01-03T16:57:00Z,30.3288,-87.8293,94.6,1111122 
DISL,ioos:station:DISL:BSCA:1,2019-01-03T17:57:00Z,30.3288,-87.8293,95.1,1111122 
DISL,ioos:station:DISL:BSCA:1,2019-01-03T18:57:00Z,30.3288,-87.8293,93.9,1111122 
DISL,ioos:station:DISL:BSCA:1,2019-01-03T19:57:00Z,30.3288,-87.8293,94.2,1111122 
DISL,ioos:station:DISL:BSCA:1,2019-01-03T20:57:00Z,30.3288,-87.8293,96.2,1111122 
DISL,ioos:station:DISL:BSCA:1,2019-01-03T21:57:00Z,30.3288,-87.8293,97.3,1111122 
DISL,ioos:station:DISL:BSCA:1,2019-01-03T22:57:00Z,30.3288,-87.8293,95.9,1111122 
DISL,ioos:station:DISL:BSCA:1,2019-01-03T23:57:00Z,30.3288,-87.8293,98.9,1111122 
DISL,ioos:station:DISL:BSCA:1,2019-01-04T00:57:00Z,30.3288,-87.8293,98.7,1111122 
DISL,ioos:station:DISL:BSCA:1,2019-01-04T01:57:00Z,30.3288,-87.8293,98.2,1111122 
DISL,ioos:station:DISL:BSCA:1,2019-01-04T02:57:00Z,30.3288,-87.8293,98.3,1111122 
DISL,ioos:station:DISL:BSCA:1,2019-01-04T03:57:00Z,30.3288,-87.8293,99.4,1111122 
DISL,ioos:station:DISL:BSCA:1,2019-01-04T04:57:00Z,30.3288,-87.8293,99.4,1111122 
DISL,ioos:station:DISL:BSCA:1,2019-01-04T05:57:00Z,30.3288,-87.8293,99.4,1111122 
DISL,ioos:station:DISL:BSCA:1,2019-01-04T06:57:00Z,30.3288,-87.8293,99.5,1111122 
DISL,ioos:station:DISL:BSCA:1,2019-01-04T07:57:00Z,30.3288,-87.8293,98.5,1111122 
DISL,ioos:station:DISL:BSCA:1,2019-01-04T08:57:00Z,30.3288,-87.8293,92.1,1111122 
DISL,ioos:station:DISL:BSCA:1,2019-01-04T09:57:00Z,30.3288,-87.8293,89.9,1111122 
DISL,ioos:station:DISL:BSCA:1,2019-01-04T10:57:00Z,30.3288,-87.8293,82.4,1111122 
DISL,ioos:station:DISL:BSCA:1,2019-01-04T11:57:00Z,30.3288,-87.8293,82.8,1111122 
DISL,ioos:station:DISL:BSCA:1,2019-01-04T12:57:00Z,30.3288,-87.8293,83.8,1111122 
DISL,ioos:station:DISL:BSCA:1,2019-01-04T13:57:00Z,30.3288,-87.8293,81.7,1111122 
DISL,ioos:station:DISL:BSCA:1,2019-01-04T14:57:00Z,30.3288,-87.8293,68.96,1111122 
DISL,ioos:station:DISL:BSCA:1,2019-01-04T15:57:00Z,30.3288,-87.8293,62.97,1111122 
DISL,ioos:station:DISL:BSCA:1,2019-01-04T16:57:00Z,30.3288,-87.8293,64.66,1111122 
DISL,ioos:station:DISL:BSCA:1,2019-01-04T17:57:00Z,30.3288,-87.8293,60.7,1111122 
DISL,ioos:station:DISL:BSCA:1,2019-01-04T18:57:00Z,30.3288,-87.8293,62.09,1111122 
DISL,ioos:station:DISL:BSCA:1,2019-01-04T19:57:00Z,30.3288,-87.8293,59.92,1111122 
DISL,ioos:station:DISL:BSCA:1,2019-01-04T20:57:00Z,30.3288,-87.8293,62.02,1111122 
DISL,ioos:station:DISL:BSCA:1,2019-01-04T21:57:00Z,30.3288,-87.8293,65.0,1111122 
DISL,ioos:station:DISL:BSCA:1,2019-01-04T22:57:00Z,30.3288,-87.8293,67.3,1111122 
DISL,ioos:station:DISL:BSCA:1,2019-01-04T23:57:00Z,30.3288,-87.8293,66.69,1111122 
DISL,ioos:station:DISL:BSCA:1,2019-01-05T00:57:00Z,30.3288,-87.8293,65.61,1111122 
DISL,ioos:station:DISL:BSCA:1,2019-01-05T01:57:00Z,30.3288,-87.8293,60.57,1111122 
DISL,ioos:station:DISL:BSCA:1,2019-01-05T02:57:00Z,30.3288,-87.8293,63.44,1111122 
DISL,ioos:station:DISL:BSCA:1,2019-01-05T03:57:00Z,30.3288,-87.8293,73.09,1111122 
DISL,ioos:station:DISL:BSCA:1,2019-01-05T04:57:00Z,30.3288,-87.8293,70.74,1111122 
DISL,ioos:station:DISL:BSCA:1,2019-01-05T05:57:00Z,30.3288,-87.8293,78.49,1111122 
DISL,ioos:station:DISL:BSCA:1,2019-01-05T06:57:00Z,30.3288,-87.8293,72.74,1111122 
DISL,ioos:station:DISL:BSCA:1,2019-01-05T07:57:00Z,30.3288,-87.8293,76.97,1111122 
DISL,ioos:station:DISL:BSCA:1,2019-01-05T08:57:00Z,30.3288,-87.8293,76.87,1111122 
DISL,ioos:station:DISL:BSCA:1,2019-01-05T09:57:00Z,30.3288,-87.8293,76.16,1111122 
DISL,ioos:station:DISL:BSCA:1,2019-01-05T10:57:00Z,30.3288,-87.8293,76.83,1111122 
DISL,ioos:station:DISL:BSCA:1,2019-01-05T11:57:00Z,30.3288,-87.8293,76.36,1111122 
DISL,ioos:station:DISL:BSCA:1,2019-01-05T12:57:00Z,30.3288,-87.8293,76.9,1111122 
DISL,ioos:station:DISL:BSCA:1,2019-01-05T13:57:00Z,30.3288,-87.8293,69.11,1111122 
DISL,ioos:station:DISL:BSCA:1,2019-01-05T14:57:00Z,30.3288,-87.8293,64.74,1111122 
DISL,ioos:station:DISL:BSCA:1,2019-01-05T15:57:00Z,30.3288,-87.8293,62.39,1111122 
DISL,ioos:station:DISL:BSCA:1,2019-01-05T16:57:00Z,30.3288,-87.8293,63.98,1111122 
DISL,ioos:station:DISL:BSCA:1,2019-01-05T17:57:00Z,30.3288,-87.8293,70.38,1111122 
DISL,ioos:station:DISL:BSCA:1,2019-01-05T18:57:00Z,30.3288,-87.8293,59.55,1111122 
DISL,ioos:station:DISL:BSCA:1,2019-01-05T19:57:00Z,30.3288,-87.8293,52.65,1111122 
DISL,ioos:station:DISL:BSCA:1,2019-01-05T20:57:00Z,30.3288,-87.8293,61.82,1111122 
DISL,ioos:station:DISL:BSCA:1,2019-01-05T21:57:00Z,30.3288,-87.8293,60.97,1111122 
DISL,ioos:station:DISL:BSCA:1,2019-01-05T22:57:00Z,30.3288,-87.8293,74.67,1111122 
DISL,ioos:station:DISL:BSCA:1,2019-01-05T23:57:00Z,30.3288,-87.8293,75.69,1111122 
DISL,ioos:station:DISL:BSCA:1,2019-01-06T00:57:00Z,30.3288,-87.8293,74.27,1111122 
DISL,ioos:station:DISL:BSCA:1,2019-01-06T01:57:00Z,30.3288,-87.8293,77.28,1111122 
DISL,ioos:station:DISL:BSCA:1,2019-01-06T16:57:00Z,30.3288,-87.8293,61.9,1111122 
DISL,ioos:station:DISL:BSCA:1,2019-01-06T17:57:00Z,30.3288,-87.8293,59.8,1111122 
DISL,ioos:station:DISL:BSCA:1,2019-01-06T18:57:00Z,30.3288,-87.8293,70.12,1111122 
DISL,ioos:station:DISL:BSCA:1,2019-01-06T19:57:00Z,30.3288,-87.8293,66.16,1111122 
DISL,ioos:station:DISL:BSCA:1,2019-01-06T20:57:00Z,30.3288,-87.8293,63.18,1111122 
DISL,ioos:station:DISL:BSCA:1,2019-01-06T21:57:00Z,30.3288,-87.8293,59.8,1111122 
DISL,ioos:station:DISL:BSCA:1,2019-01-06T22:57:00Z,30.3288,-87.8293,63.76,1111122 
DISL,ioos:station:DISL:BSCA:1,2019-01-06T23:57:00Z,30.3288,-87.8293,66.25,1111122 
DISL,ioos:station:DISL:BSCA:1,2019-01-07T00:57:00Z,30.3288,-87.8293,70.82,1111122 
DISL,ioos:station:DISL:BSCA:1,2019-01-07T01:57:00Z,30.3288,-87.8293,74.54,1111122 
DISL,ioos:station:DISL:BSCA:1,2019-01-07T02:57:00Z,30.3288,-87.8293,77.18,1111122 
DISL,ioos:station:DISL:BSCA:1,2019-01-07T03:57:00Z,30.3288,-87.8293,90.4,1111122 
DISL,ioos:station:DISL:BSCA:1,2019-01-07T04:57:00Z,30.3288,-87.8293,94.5,1111122 
DISL,ioos:station:DISL:BSCA:1,2019-01-07T05:57:00Z,30.3288,-87.8293,96.4,1111122 
DISL,ioos:station:DISL:BSCA:1,2019-01-07T06:57:00Z,30.3288,-87.8293,97.4,1111122 
DISL,ioos:station:DISL:BSCA:1,2019-01-07T15:57:00Z,30.3288,-87.8293,74.67,1111122 
DISL,ioos:station:DISL:BSCA:1,2019-01-07T16:57:00Z,30.3288,-87.8293,72.35,1111122 
DISL,ioos:station:DISL:BSCA:1,2019-01-07T17:57:00Z,30.3288,-87.8293,68.36,1111122 
DISL,ioos:station:DISL:BSCA:1,2019-01-07T18:57:00Z,30.3288,-87.8293,66.4,1111122 
DISL,ioos:station:DISL:BSCA:1,2019-01-07T19:57:00Z,30.3288,-87.8293,76.61,1111122 
DISL,ioos:station:DISL:BSCA:1,2019-01-07T20:57:00Z,30.3288,-87.8293,70.66,1111122 
DISL,ioos:station:DISL:BSCA:1,2019-01-07T21:57:00Z,30.3288,-87.8293,68.53,1111122 
DISL,ioos:station:DISL:BSCA:1,2019-01-07T22:57:00Z,30.3288,-87.8293,84.1,1111122 
DISL,ioos:station:DISL:BSCA:1,2019-01-07T23:57:00Z,30.3288,-87.8293,79.01,1111122 
DISL,ioos:station:DISL:BSCA:1,2019-01-08T00:57:00Z,30.3288,-87.8293,92.2,1111122 
DISL,ioos:station:DISL:BSCA:1,2019-01-08T01:57:00Z,30.3288,-87.8293,90.0,1111122 
DISL,ioos:station:DISL:BSCA:1,2019-01-08T02:57:00Z,30.3288,-87.8293,80.5,1111122 
DISL,ioos:station:DISL:BSCA:1,2019-01-08T03:27:00Z,30.3288,-87.8293,81.9,1111122 
DISL,ioos:station:DISL:BSCA:1,2019-01-08T06:57:00Z,30.3288,-87.8293,95.1,1111122 
DISL,ioos:station:DISL:BSCA:1,2019-01-08T07:57:00Z,30.3288,-87.8293,84.2,1111122 
DISL,ioos:station:DISL:BSCA:1,2019-01-08T08:57:00Z,30.3288,-87.8293,96.8,1111122 
DISL,ioos:station:DISL:BSCA:1,2019-01-08T09:57:00Z,30.3288,-87.8293,85.2,1111122 
DISL,ioos:station:DISL:BSCA:1,2019-01-08T10:57:00Z,30.3288,-87.8293,98.7,1111122 
DISL,ioos:station:DISL:BSCA:1,2019-01-08T11:57:00Z,30.3288,-87.8293,86.0,1111122 
DISL,ioos:station:DISL:BSCA:1,2019-01-08T12:57:00Z,30.3288,-87.8293,99.3,1111122 
DISL,ioos:station:DISL:BSCA:1,2019-01-08T13:57:00Z,30.3288,-87.8293,84.4,1111122 
DISL,ioos:station:DISL:BSCA:1,2019-01-08T14:57:00Z,30.3288,-87.8293,82.5,1111122 
DISL,ioos:station:DISL:BSCA:1,2019-01-08T15:57:00Z,30.3288,-87.8293,74.89,1111122 
DISL,ioos:station:DISL:BSCA:1,2019-01-08T16:57:00Z,30.3288,-87.8293,78.12,1111122 
DISL,ioos:station:DISL:BSCA:1,2019-01-08T17:57:00Z,30.3288,-87.8293,74.94,1111122 
DISL,ioos:station:DISL:BSCA:1,2019-01-08T18:57:00Z,30.3288,-87.8293,74.45,1111122 
DISL,ioos:station:DISL:BSCA:1,2019-01-08T19:57:00Z,30.3288,-87.8293,87.1,1111122 
DISL,ioos:station:DISL:BSCA:1,2019-01-08T20:57:00Z,30.3288,-87.8293,76.2,1111122 
DISL,ioos:station:DISL:BSCA:1,2019-01-08T21:57:00Z,30.3288,-87.8293,79.38,1111122 
DISL,ioos:station:DISL:BSCA:1,2019-01-08T22:57:00Z,30.3288,-87.8293,94.2,1111122 
DISL,ioos:station:DISL:BSCA:1,2019-01-08T23:57:00Z,30.3288,-87.8293,95.9,1111122 
DISL,ioos:station:DISL:BSCA:1,2019-01-09T00:57:00Z,30.3288,-87.8293,84.1,1111122 
DISL,ioos:station:DISL:BSCA:1,2019-01-09T01:57:00Z,30.3288,-87.8293,84.4,1111122 
DISL,ioos:station:DISL:BSCA:1,2019-01-09T02:57:00Z,30.3288,-87.8293,84.2,1111122 
DISL,ioos:station:DISL:BSCA:1,2019-01-09T03:57:00Z,30.3288,-87.8293,84.7,1111122 
DISL,ioos:station:DISL:BSCA:1,2019-01-09T04:57:00Z,30.3288,-87.8293,85.0,1111122 
DISL,ioos:station:DISL:BSCA:1,2019-01-09T05:57:00Z,30.3288,-87.8293,77.04,1111122 
DISL,ioos:station:DISL:BSCA:1,2019-01-09T06:57:00Z,30.3288,-87.8293,72.71,1111122 
DISL,ioos:station:DISL:BSCA:1,2019-01-09T07:57:00Z,30.3288,-87.8293,65.98,1111122 
DISL,ioos:station:DISL:BSCA:1,2019-01-09T08:57:00Z,30.3288,-87.8293,59.35,1111122 
DISL,ioos:station:DISL:BSCA:1,2019-01-09T09:57:00Z,30.3288,-87.8293,55.46,1111122 
DISL,ioos:station:DISL:BSCA:1,2019-01-09T10:57:00Z,30.3288,-87.8293,57.82,1111122 
DISL,ioos:station:DISL:BSCA:1,2019-01-09T11:57:00Z,30.3288,-87.8293,57.28,1111122 
DISL,ioos:station:DISL:BSCA:1,2019-01-09T12:57:00Z,30.3288,-87.8293,56.65,1111122 
DISL,ioos:station:DISL:BSCA:1,2019-01-09T13:57:00Z,30.3288,-87.8293,58.04,1111122 
DISL,ioos:station:DISL:BSCA:1,2019-01-09T14:57:00Z,30.3288,-87.8293,44.93,1111122 
DISL,ioos:station:DISL:BSCA:1,2019-01-09T17:57:00Z,30.3288,-87.8293,33.9,1111122 
DISL,ioos:station:DISL:BSCA:1,2019-01-09T18:57:00Z,30.3288,-87.8293,37.76,1111122 
DISL,ioos:station:DISL:BSCA:1,2019-01-09T19:57:00Z,30.3288,-87.8293,29.2,1111122 
DISL,ioos:station:DISL:BSCA:1,2019-01-09T20:57:00Z,30.3288,-87.8293,25.65,1111122 
DISL,ioos:station:DISL:BSCA:1,2019-01-09T21:57:00Z,30.3288,-87.8293,37.15,1111122 
DISL,ioos:station:DISL:BSCA:1,2019-01-09T22:57:00Z,30.3288,-87.8293,34.07,1111122 
DISL,ioos:station:DISL:BSCA:1,2019-01-09T23:57:00Z,30.3288,-87.8293,36.54,1111122 
DISL,ioos:station:DISL:BSCA:1,2019-01-10T00:57:00Z,30.3288,-87.8293,40.57,1111122 
DISL,ioos:station:DISL:BSCA:1,2019-01-10T01:57:00Z,30.3288,-87.8293,43.89,1111122 
DISL,ioos:station:DISL:BSCA:1,2019-01-10T02:57:00Z,30.3288,-87.8293,41.29,1111122 
DISL,ioos:station:DISL:BSCA:1,2019-01-10T03:57:00Z,30.3288,-87.8293,42.48,1111122 
DISL,ioos:station:DISL:BSCA:1,2019-01-10T04:57:00Z,30.3288,-87.8293,50.53,1111122 
DISL,ioos:station:DISL:BSCA:1,2019-01-10T05:57:00Z,30.3288,-87.8293,48.6,1111122 
DISL,ioos:station:DISL:BSCA:1,2019-01-10T06:57:00Z,30.3288,-87.8293,47.39,1111122 
DISL,ioos:station:DISL:BSCA:1,2019-01-10T07:57:00Z,30.3288,-87.8293,48.27,1111122 
DISL,ioos:station:DISL:BSCA:1,2019-01-10T08:57:00Z,30.3288,-87.8293,52.94,1111122 
DISL,ioos:station:DISL:BSCA:1,2019-01-10T09:57:00Z,30.3288,-87.8293,51.89,1111122 
DISL,ioos:station:DISL:BSCA:1,2019-01-10T10:57:00Z,30.3288,-87.8293,51.49,1111122 
DISL,ioos:station:DISL:BSCA:1,2019-01-10T11:57:00Z,30.3288,-87.8293,51.57,1111122 
DISL,ioos:station:DISL:BSCA:1,2019-01-10T12:57:00Z,30.3288,-87.8293,55.9,1111122 
DISL,ioos:station:DISL:BSCA:1,2019-01-10T13:57:00Z,30.3288,-87.8293,53.12,1111122 
DISL,ioos:station:DISL:BSCA:1,2019-01-10T14:57:00Z,30.3288,-87.8293,41.71,1111122 
DISL,ioos:station:DISL:BSCA:1,2019-01-10T15:57:00Z,30.3288,-87.8293,39.74,1111122 
DISL,ioos:station:DISL:BSCA:1,2019-01-10T16:57:00Z,30.3288,-87.8293,38.24,1111122 
DISL,ioos:station:DISL:BSCA:1,2019-01-10T17:57:00Z,30.3288,-87.8293,36.75,1111122 
DISL,ioos:station:DISL:BSCA:1,2019-01-10T18:57:00Z,30.3288,-87.8293,53.22,1111122 
DISL,ioos:station:DISL:BSCA:1,2019-01-10T19:57:00Z,30.3288,-87.8293,41.99,1111122 
DISL,ioos:station:DISL:BSCA:1,2019-01-10T20:57:00Z,30.3288,-87.8293,43.78,1111122 
DISL,ioos:station:DISL:BSCA:1,2019-01-10T21:57:00Z,30.3288,-87.8293,40.91,1111122 
DISL,ioos:station:DISL:BSCA:1,2019-01-10T22:57:00Z,30.3288,-87.8293,38.81,1111122 
DISL,ioos:station:DISL:BSCA:1,2019-01-10T23:57:00Z,30.3288,-87.8293,39.32,1111122 
DISL,ioos:station:DISL:BSCA:1,2019-01-11T00:57:00Z,30.3288,-87.8293,46.74,1111122 
DISL,ioos:station:DISL:BSCA:1,2019-01-11T01:57:00Z,30.3288,-87.8293,48.74,1111122 
DISL,ioos:station:DISL:BSCA:1,2019-01-11T02:57:00Z,30.3288,-87.8293,48.94,1111122 
DISL,ioos:station:DISL:BSCA:1,2019-01-11T03:57:00Z,30.3288,-87.8293,50.64,1111122 
DISL,ioos:station:DISL:BSCA:1,2019-01-11T04:57:00Z,30.3288,-87.8293,54.16,1111122 
DISL,ioos:station:DISL:BSCA:1,2019-01-11T05:57:00Z,30.3288,-87.8293,57.41,1111122 
DISL,ioos:station:DISL:BSCA:1,2019-01-11T06:57:00Z,30.3288,-87.8293,57.55,1111122 
DISL,ioos:station:DISL:BSCA:1,2019-01-11T07:57:00Z,30.3288,-87.8293,60.84,1111122 
DISL,ioos:station:DISL:BSCA:1,2019-01-11T08:57:00Z,30.3288,-87.8293,63.25,1111122 
DISL,ioos:station:DISL:BSCA:1,2019-01-11T09:57:00Z,30.3288,-87.8293,65.24,1111122 
DISL,ioos:station:DISL:BSCA:1,2019-01-11T10:57:00Z,30.3288,-87.8293,68.63,1111122 
DISL,ioos:station:DISL:BSCA:1,2019-01-11T11:57:00Z,30.3288,-87.8293,71.31,1111122 
DISL,ioos:station:DISL:BSCA:1,2019-01-11T12:57:00Z,30.3288,-87.8293,69.07,1111122 
DISL,ioos:station:DISL:BSCA:1,2019-01-11T13:57:00Z,30.3288,-87.8293,65.89,1111122 
DISL,ioos:station:DISL:BSCA:1,2019-01-11T14:57:00Z,30.3288,-87.8293,59.21,1111122 
DISL,ioos:station:DISL:BSCA:1,2019-01-11T15:57:00Z,30.3288,-87.8293,59.94,1111122 
DISL,ioos:station:DISL:BSCA:1,2019-01-11T16:57:00Z,30.3288,-87.8293,62.02,1111122 
DISL,ioos:station:DISL:BSCA:1,2019-01-11T17:57:00Z,30.3288,-87.8293,63.41,1111122 
DISL,ioos:station:DISL:BSCA:1,2019-01-11T18:57:00Z,30.3288,-87.8293,60.63,1111122 
DISL,ioos:station:DISL:BSCA:1,2019-01-11T19:57:00Z,30.3288,-87.8293,66.96,1111122 
DISL,ioos:station:DISL:BSCA:1,2019-01-11T20:57:00Z,30.3288,-87.8293,63.78,1111122 
DISL,ioos:station:DISL:BSCA:1,2019-01-11T21:57:00Z,30.3288,-87.8293,66.69,1111122 
DISL,ioos:station:DISL:BSCA:1,2019-01-11T22:57:00Z,30.3288,-87.8293,68.28,1111122 
DISL,ioos:station:DISL:BSCA:1,2019-01-11T23:57:00Z,30.3288,-87.8293,70.82,1111122 
DISL,ioos:station:DISL:BSCA:1,2019-01-12T00:57:00Z,30.3288,-87.8293,71.23,1111122 
DISL,ioos:station:DISL:BSCA:1,2019-01-12T01:57:00Z,30.3288,-87.8293,74.97,1111122 
DISL,ioos:station:DISL:BSCA:1,2019-01-12T02:57:00Z,30.3288,-87.8293,78.12,1111122 
DISL,ioos:station:DISL:BSCA:1,2019-01-12T03:57:00Z,30.3288,-87.8293,79.57,1111122 
DISL,ioos:station:DISL:BSCA:1,2019-01-12T04:57:00Z,30.3288,-87.8293,81.1,1111122 
DISL,ioos:station:DISL:BSCA:1,2019-01-12T05:57:00Z,30.3288,-87.8293,81.3,1111122 
DISL,ioos:station:DISL:BSCA:1,2019-01-12T06:57:00Z,30.3288,-87.8293,77.06,1111122 
DISL,ioos:station:DISL:BSCA:1,2019-01-12T07:57:00Z,30.3288,-87.8293,74.12,1111122 
DISL,ioos:station:DISL:BSCA:1,2019-01-12T08:57:00Z,30.3288,-87.8293,70.6,1111122 
DISL,ioos:station:DISL:BSCA:1,2019-01-12T09:57:00Z,30.3288,-87.8293,73.92,1111122 
DISL,ioos:station:DISL:BSCA:1,2019-01-12T10:57:00Z,30.3288,-87.8293,74.94,1111122 
DISL,ioos:station:DISL:BSCA:1,2019-01-12T11:57:00Z,30.3288,-87.8293,77.51,1111122 
DISL,ioos:station:DISL:BSCA:1,2019-01-12T12:57:00Z,30.3288,-87.8293,78.59,1111122 
DISL,ioos:station:DISL:BSCA:1,2019-01-12T13:57:00Z,30.3288,-87.8293,82.4,1111122 
DISL,ioos:station:DISL:BSCA:1,2019-01-12T14:57:00Z,30.3288,-87.8293,85.9,1111122 
DISL,ioos:station:DISL:BSCA:1,2019-01-12T15:57:00Z,30.3288,-87.8293,73.42,1111122 
DISL,ioos:station:DISL:BSCA:1,2019-01-12T16:57:00Z,30.3288,-87.8293,67.3,1111122 
DISL,ioos:station:DISL:BSCA:1,2019-01-12T17:57:00Z,30.3288,-87.8293,69.7,1111122 
DISL,ioos:station:DISL:BSCA:1,2019-01-12T18:57:00Z,30.3288,-87.8293,74.13,1111122 
DISL,ioos:station:DISL:BSCA:1,2019-01-12T19:57:00Z,30.3288,-87.8293,75.32,1111122 
DISL,ioos:station:DISL:BSCA:1,2019-01-12T20:57:00Z,30.3288,-87.8293,88.2,1111122 
DISL,ioos:station:DISL:BSCA:1,2019-01-12T21:57:00Z,30.3288,-87.8293,76.43,1111122 
DISL,ioos:station:DISL:BSCA:1,2019-01-12T22:57:00Z,30.3288,-87.8293,78.13,1111122 
DISL,ioos:station:DISL:BSCA:1,2019-01-12T23:57:00Z,30.3288,-87.8293,80.5,1111122 
DISL,ioos:station:DISL:BSCA:1,2019-01-13T00:57:00Z,30.3288,-87.8293,81.9,1111122 
DISL,ioos:station:DISL:BSCA:1,2019-01-13T01:57:00Z,30.3288,-87.8293,93.3,1111122 
DISL,ioos:station:DISL:BSCA:1,2019-01-13T02:57:00Z,30.3288,-87.8293,97.5,1111122 
DISL,ioos:station:DISL:BSCA:1,2019-01-13T03:57:00Z,30.3288,-87.8293,99.3,1111122 
DISL,ioos:station:DISL:BSCA:1,2019-01-13T04:57:00Z,30.3288,-87.8293,99.3,1111122 
DISL,ioos:station:DISL:BSCA:1,2019-01-13T05:57:00Z,30.3288,-87.8293,99.3,1111122 
DISL,ioos:station:DISL:BSCA:1,2019-01-13T06:57:00Z,30.3288,-87.8293,99.2,1111122 
DISL,ioos:station:DISL:BSCA:1,2019-01-13T07:57:00Z,30.3288,-87.8293,99.3,1111122 
DISL,ioos:station:DISL:BSCA:1,2019-01-13T08:57:00Z,30.3288,-87.8293,99.3,1111122 
DISL,ioos:station:DISL:BSCA:1,2019-01-13T09:57:00Z,30.3288,-87.8293,99.3,1111122 
DISL,ioos:station:DISL:BSCA:1,2019-01-13T10:57:00Z,30.3288,-87.8293,99.2,1111122 
DISL,ioos:station:DISL:BSCA:1,2019-01-13T11:57:00Z,30.3288,-87.8293,97.2,1111122 
DISL,ioos:station:DISL:BSCA:1,2019-01-13T12:57:00Z,30.3288,-87.8293,86.1,1111122 
DISL,ioos:station:DISL:BSCA:1,2019-01-13T13:57:00Z,30.3288,-87.8293,86.3,1111122 
DISL,ioos:station:DISL:BSCA:1,2019-01-13T14:57:00Z,30.3288,-87.8293,83.2,1111122 
DISL,ioos:station:DISL:BSCA:1,2019-01-13T15:57:00Z,30.3288,-87.8293,85.7,1111122 
DISL,ioos:station:DISL:BSCA:1,2019-01-13T16:57:00Z,30.3288,-87.8293,76.7,1111122 
DISL,ioos:station:DISL:BSCA:1,2019-01-13T17:57:00Z,30.3288,-87.8293,72.75,1111122 
DISL,ioos:station:DISL:BSCA:1,2019-01-13T18:57:00Z,30.3288,-87.8293,68.82,1111122 
DISL,ioos:station:DISL:BSCA:1,2019-01-13T19:57:00Z,30.3288,-87.8293,69.16,1111122 
DISL,ioos:station:DISL:BSCA:1,2019-01-13T20:57:00Z,30.3288,-87.8293,69.5,1111122 
DISL,ioos:station:DISL:BSCA:1,2019-01-13T21:57:00Z,30.3288,-87.8293,69.84,1111122 
DISL,ioos:station:DISL:BSCA:1,2019-01-13T22:57:00Z,30.3288,-87.8293,70.85,1111122 
DISL,ioos:station:DISL:BSCA:1,2019-01-13T23:57:00Z,30.3288,-87.8293,70.06,1111122 
DISL,ioos:station:DISL:BSCA:1,2019-01-14T00:57:00Z,30.3288,-87.8293,72.43,1111122 
DISL,ioos:station:DISL:BSCA:1,2019-01-14T01:57:00Z,30.3288,-87.8293,72.03,1111122 
DISL,ioos:station:DISL:BSCA:1,2019-01-14T02:57:00Z,30.3288,-87.8293,68.81,1111122 
DISL,ioos:station:DISL:BSCA:1,2019-01-14T03:57:00Z,30.3288,-87.8293,69.69,1111122 
DISL,ioos:station:DISL:BSCA:1,2019-01-14T04:57:00Z,30.3288,-87.8293,71.86,1111122 
DISL,ioos:station:DISL:BSCA:1,2019-01-14T05:57:00Z,30.3288,-87.8293,74.12,1111122 
DISL,ioos:station:DISL:BSCA:1,2019-01-14T06:57:00Z,30.3288,-87.8293,73.68,1111122 
DISL,ioos:station:DISL:BSCA:1,2019-01-14T07:57:00Z,30.3288,-87.8293,73.32,1111122 
DISL,ioos:station:DISL:BSCA:1,2019-01-14T08:57:00Z,30.3288,-87.8293,74.3,1111122 
DISL,ioos:station:DISL:BSCA:1,2019-01-14T09:57:00Z,30.3288,-87.8293,75.15,1111122 
DISL,ioos:station:DISL:BSCA:1,2019-01-14T10:57:00Z,30.3288,-87.8293,78.03,1111122 
DISL,ioos:station:DISL:BSCA:1,2019-01-14T11:57:00Z,30.3288,-87.8293,77.93,1111122 
DISL,ioos:station:DISL:BSCA:1,2019-01-14T12:57:00Z,30.3288,-87.8293,79.38,1111122 
DISL,ioos:station:DISL:BSCA:1,2019-01-14T13:57:00Z,30.3288,-87.8293,80.7,1111122 